Left ArrowRight Arrow

35.59393, -105.2239

Hourly Observations for June 24, 2024

Temp ( °F °C ) Dew Point ( °F °C ) Humidity (%) Winds ( mph kmh ) Pressure ( in mb ) Visibility ( mi km ) Precip ( " mm )
12:53 am 00:53 Clear 61 16.1 52 11.1 72 72 SW 8 13 29.98 1015 10 16 0.00 0.00
1:53 am 01:53 Clear 60 15.6 52 11.1 75 75 S 9 15 29.98 1015 10 16 0.00 0.00
2:53 am 02:53 Clear 59 15 51 10.6 75 75 S 10 17 29.96 1015 10 16 0.00 0.00
3:53 am 03:53 Clear 58 14.4 51 10.6 78 78 SSW 10 17 29.94 1014 10 16 0.00 0.00
4:53 am 04:53 Clear 58 14.4 51 10.6 78 78 S 8 13 29.92 1013 10 16 0.00 0.00
5:53 am 05:53 Sunny 59 15 51 10.6 75 75 S 6 9 29.92 1013 10 16 0.00 0.00
6:53 am 06:53 Sunny 62 16.7 53 11.7 72 72 Calm 29.92 1013 10 16 0.00 0.00
7:53 am 07:53 Sunny 67 19.4 54 12.2 63 63 ESE 3 6 29.93 1013 10 16 0.00 0.00
8:53 am 08:53 Mostly Sunny 71 21.7 55 12.8 57 57 SW 3 6 29.93 1013 10 16 0.00 0.00
9:53 am 09:53 Sunny 76 24.4 53 11.7 45 45 Calm 29.90 1013 10 16 0.00 0.00
10:53 am 10:53 Sunny 78 25.6 55 12.8 45 45 S 5 7 29.90 1013 10 16 0.00 0.00
11:53 am 11:53 Sunny 82 27.8 49 9.4 32 32 E 3 6 29.88 1012 10 16 0.00 0.00
12:53 pm 12:53 Sunny 82 27.8 51 10.6 34 34 VRB 3 6 29.85 1011 10 16 0.00 0.00
1:53 pm 13:53 Cloudy 81 27.2 52 11.1 37 37 W 10 17 29.85 1011 10 16 0.00 0.00
2:53 pm 14:53 Mostly Cloudy 82 27.8 50 10 33 33 SSW 5 7 29.83 1010 10 16 0.00 0.00
3:53 pm 15:53 Sunny 84 28.9 53 11.7 35 35 SW 7 11 29.80 1009 10 16 0.00 0.00
4:53 pm 16:53 Sunny 83 28.3 53 11.7 36 36 SSW 7 11 29.78 1009 10 16 0.00 0.00
5:53 pm 17:53 Mostly Sunny 79 26.1 62 16.7 56 56 S 6 9 29.79 1009 10 16 0.00 0.00
6:11 pm 18:11 Mostly Cloudy with Nearby Thunderstorms 78 25.6 63 17.2 60 60 SSE 5 7 29.53 1000 10 16 0.00 0.00
6:27 pm 18:27 Cloudy with Thunderstorms 77 25 63 17.2 62 62 WSW 12 19 29.55 1001 10 16 0.01 0.13
7:00 pm 19:00 Cloudy with Light Rain 70 21.1 54 12.2 57 57 SE 16 26 29.67 1005 10 16 0.01 0.13
7:27 pm 19:27 Cloudy with Light Rain 71 21.7 53 11.7 53 53 SSE 15 24 29.66 1004 10 16 0.01 0.13
7:53 pm 19:53 Cloudy 71 21.7 52 11.1 51 51 S 21 33 29.84 1011 10 16 0.01 0.13
8:53 pm 20:53 Mostly Clear 68 20 54 12.2 61 61 WSW 13 20 29.84 1011 10 16 0.00 0.00
9:53 pm 21:53 Clear 65 18.3 56 13.3 73 73 SSW 9 15 29.83 1010 10 16 0.00 0.00
10:53 pm 22:53 Clear 63 17.2 56 13.3 78 78 S 9 15 29.84 1011 10 16 0.00 0.00
11:53 pm 23:53 Clear 66 18.9 52 11.1 61 61 N 5 7 29.83 1010 10 16 0.00 0.00

Powered by Vaisala Xweather